Hourly Data Report for October 18, 2015

All times are specified in Local Standard Time (LST). Add 1 hour to adjust for Daylight Saving Time where and when it is observed.

KUGLUKTUK A
NUNAVUT

67°49'00.000" N
115°08'38.000" W
22.60 m
2300903
71938
YCO

Download Data

Hourly Data (October 2015)
Hourly Data Report for October 18, 2015
Temp Definition
°C
Dew Point Temp Definition
°C
Rel Hum Definition
%
Wind Dir Definition
10's deg

Wind Spd Definition
km/h
Visibility Definition
km
Stn Press Definition
kPa
Hmdx Definition


Wind Chill Definition


Weather Definition


TIME
00:00 Legend Double Dagger -4.7 -6.5 87 7 30 9.7 100.51   -13 Snow Pellets,Blowing Snow
01:00 Legend Double Dagger -4.7 -7.8 79 7 31 12.9 100.54   -13 Snow Pellets,Blowing Snow
02:00 Legend Double Dagger -4.7 -7.2 83 7 30 16.1 100.56   -13 Blowing Snow
03:00 Legend Double Dagger -5.1 -6.5 90 6 35 8.1 100.62   -14 Freezing Drizzle,Snow Pellets,Fog
04:00 Legend Double Dagger -5.1 -7.6 83 7 30 8.1 100.68   -13 Snow Pellets,Fog
05:00 Legend Double Dagger -5.6 -8.2 82 7 34 8.1 100.76   -14 Freezing Drizzle,Snow Pellets,Fog
06:00 Legend Double Dagger -5.5 -8.4 80 6 20 12.9 100.82   -12 Snow Pellets
07:00 Legend Double Dagger -5.5 -8.8 78 7 24 16.1 100.89   -13 Snow Pellets
08:00 Legend Double Dagger -5.7 -8.8 79 6 22 19.3 100.99   -13 Snow Pellets,Blowing Snow
09:00 Legend Double Dagger -5.9 -9.1 78 4 27 24.1 101.06   -14 Snow Pellets
10:00 Legend Double Dagger -5.8 -9.4 76 7 22 24.1 101.17   -13 Snow Pellets
11:00 Legend Double Dagger -6.1 -8.2 85 3 32 19.3 101.24   -15 Snow Pellets
12:00 Legend Double Dagger -6.2 -8.8 82 3 25 24.1 101.32   -14 Snow Pellets
13:00 Legend Double Dagger -6.4 -9.0 82 3 27 24.1 101.39   -14 Snow Pellets
14:00 Legend Double Dagger -6.8 -8.5 88 1 24 24.1 101.45   -14 Cloudy
15:00 Legend Double Dagger -6.5 -8.3 87 3 22 24.1 101.50   -14 LegendNANA
16:00 Legend Double Dagger -6.3 -9.9 76 5 14 24.1 101.56   -12 Snow Pellets
17:00 Legend Double Dagger -6.2 -9.9 75 8 8 24.1 101.62   -10 Snow Pellets
18:00 Legend Double Dagger -6.4 -10.1 75 6 9 24.1 101.67   -11 Snow Pellets
19:00 Legend Double Dagger -6.8 -8.8 86 3 10 24.1 101.69   -11 Snow Pellets
20:00 Legend Double Dagger -6.5 -10.2 75 13 10 24.1 101.72   -11 Snow Pellets
21:00 Legend Double Dagger -6.7 -9.9 78 13 12 24.1 101.74   -12 Snow Pellets
22:00 Legend Double Dagger -7.2 -10.1 80 15 15 24.1 101.75   -13 Snow Pellets
23:00 Legend Double Dagger -10.6 -13.0 83 18 21 24.1 101.76   -19 Snow Pellets

Notes on Data Quality.

Legend

  • E = Estimated
  • M = Missing
  • NA = Not Available
  • ‡ = Partner data that is not subject to review by the National Climate Archives
Date modified: